| time (UTC) | temp F | wind direction | speed MPH | gust MPH | rain 1hr in | rain 24hr in | rain mn in | humidity % | barometer mb |
| 20260903030005 | 55 | 189 | 0.0 | 0.0 | 0.00 | 0.00 | 0.00 | 27 | 1006.7 |
| 20260903024503 | 55 | 160 | 0.0 | 0.0 | 0.00 | 0.00 | 0.00 | 27 | 1006.7 |
| 20260903023011 | 56 | 188 | 0.0 | 0.0 | 0.00 | 0.00 | 0.00 | 31 | 1006.6 |
| 20260903021505 | 56 | 182 | 0.0 | 0.0 | 0.00 | 0.00 | 0.00 | 27 | 1007.0 |
| 20260903020002 | 57 | 191 | 1.0 | 0.0 | 0.00 | 0.00 | 0.00 | 28 | 1007.7 |
| 20260903014504 | 58 | 195 | 1.0 | 0.0 | 0.00 | 0.00 | 0.00 | 29 | 1007.1 |
| 20260903013001 | 58 | 140 | 0.0 | 0.0 | 0.00 | 0.00 | 0.00 | 28 | 1007.2 |
| 20260903011600 | 59 | 196 | 1.0 | 0.0 | 0.00 | 0.00 | 0.00 | 27 | 1006.7 |
| 20260903010059 | 60 | 143 | 2.0 | 0.0 | 0.00 | 0.00 | 0.00 | 24 | 1006.8 |
| 20260903004602 | 61 | 208 | 1.0 | 0.0 | 0.00 | 0.00 | 0.00 | 23 | 1006.3 |
| 20260903003112 | 61 | 217 | 3.0 | 0.0 | 0.00 | 0.00 | 0.00 | 23 | 1006.3 |
| 20260903001557 | 63 | 284 | 2.0 | 0.0 | 0.00 | 0.00 | 0.00 | 20 | 1005.7 |
| 20260903000105 | 64 | 239 | 3.0 | 0.0 | 0.00 | 0.00 | 0.00 | 23 | 1005.8 |
| 20260902234555 | 64 | 188 | 3.0 | 0.0 | 0.00 | 0.00 | 0.00 | 21 | 1006.0 |
| 20260902233054 | 65 | 289 | 2.0 | 0.0 | 0.00 | 0.00 | 0.00 | 18 | 1005.8 |
| 20260902231554 | 66 | 258 | 2.0 | 0.0 | 0.00 | 0.00 | 0.00 | 15 | 1005.9 |
| 20260902224608 | 66 | 145 | 1.0 | 0.0 | 0.00 | 0.00 | 0.00 | 14 | 1006.2 |
| 20260902223108 | 66 | 193 | 2.0 | 0.0 | 0.00 | 0.00 | 0.00 | 16 | 1006.3 |
| 20260902221554 | 66 | 164 | 1.0 | 0.0 | 0.00 | 0.00 | 0.00 | 13 | 1006.4 |
| 20260902220049 | 66 | 144 | 2.0 | 0.0 | 0.00 | 0.00 | 0.00 | 13 | 1006.4 |
| 20260902214614 | 67 | 174 | 2.0 | 0.0 | 0.00 | 0.00 | 0.00 | 13 | 1006.4 |
| 20260902213048 | 68 | 206 | 1.0 | 0.0 | 0.00 | 0.00 | 0.00 | 15 | 1006.4 |
| 20260902211551 | 67 | 186 | 1.0 | 0.0 | 0.00 | 0.00 | 0.00 | 15 | 1006.9 |
| 20260902210048 | 67 | 126 | 1.0 | 0.0 | 0.00 | 0.00 | 0.00 | 15 | 1006.9 |
| 20260902204545 | 67 | 209 | 2.0 | 0.0 | 0.00 | 0.00 | 0.00 | 14 | 1006.4 |
| 20260902203043 | 67 | 212 | 1.0 | 0.0 | 0.00 | 0.00 | 0.00 | 12 | 1006.5 |
| 20260902201550 | 66 | 116 | 1.0 | 0.0 | 0.00 | 0.00 | 0.00 | 12 | 1007.1 |
| 20260902200040 | 66 | 114 | 0.0 | 0.0 | 0.00 | 0.00 | 0.00 | 14 | 1006.9 |
| 20260902194543 | 66 | 209 | 1.0 | 0.0 | 0.00 | 0.00 | 0.00 | 14 | 1007.1 |
| 20260902193033 | 65 | 206 | 2.0 | 0.0 | 0.00 | 0.00 | 0.00 | 13 | 1007.1 |
| 20260902191529 | 65 | 219 | 1.0 | 0.0 | 0.00 | 0.00 | 0.00 | 12 | 1007.2 |
| 20260902190024 | 64 | 128 | 0.0 | 0.0 | 0.00 | 0.00 | 0.00 | 12 | 1007.6 |
| 20260902184520 | 64 | 152 | 0.0 | 0.0 | 0.00 | 0.00 | 0.00 | 13 | 1008.1 |
| 20260902183018 | 62 | 213 | 0.0 | 0.0 | 0.00 | 0.00 | 0.00 | 13 | 1008.7 |
| 20260902181516 | 62 | 186 | 0.0 | 0.0 | 0.00 | 0.00 | 0.00 | 13 | 1008.6 |
| 20260902180014 | 61 | 141 | 1.0 | 0.0 | 0.00 | 0.00 | 0.00 | 13 | 1008.5 |
| 20260902174521 | 61 | 128 | 1.0 | 0.0 | 0.00 | 0.00 | 0.00 | 13 | 1008.2 |
| 20260902173011 | 60 | 131 | 1.0 | 0.0 | 0.00 | 0.00 | 0.00 | 13 | 1008.7 |
| 20260902171510 | 59 | 124 | 0.0 | 0.0 | 0.00 | 0.00 | 0.00 | 15 | 1008.6 |
| 20260902170007 | 58 | 151 | 0.0 | 0.0 | 0.00 | 0.00 | 0.00 | 14 | 1008.5 |
| 20260902164513 | 58 | 131 | 0.0 | 0.0 | 0.00 | 0.00 | 0.00 | 14 | 1008.5 |
| 20260902163007 | 57 | 130 | 0.0 | 0.0 | 0.00 | 0.00 | 0.00 | 15 | 1008.4 |
| 20260902161511 | 57 | 147 | 0.0 | 0.0 | 0.00 | 0.00 | 0.00 | 15 | 1008.6 |
| 20260902160001 | 56 | 199 | 1.0 | 0.0 | 0.00 | 0.00 | 0.00 | 15 | 1008.5 |
| 20260902154605 | 56 | 133 | 1.0 | 0.0 | 0.00 | 0.00 | 0.00 | 15 | 1008.3 |
| 20260902153058 | 55 | 131 | 2.0 | 0.0 | 0.00 | 0.00 | 0.00 | 15 | 1008.8 |
| 20260902151559 | 54 | 128 | 3.0 | 0.0 | 0.00 | 0.00 | 0.00 | 16 | 1008.7 |
| 20260902150055 | 53 | 168 | 1.0 | 0.0 | 0.00 | 0.00 | 0.00 | 17 | 1008.8 |
| 20260902144558 | 53 | 141 | 1.0 | 0.0 | 0.00 | 0.00 | 0.00 | 17 | 1008.7 |
| 20260902143051 | 53 | 141 | 2.0 | 0.0 | 0.00 | 0.00 | 0.00 | 17 | 1008.6 |
| 20260902141550 | 52 | 181 | 2.0 | 0.0 | 0.00 | 0.00 | 0.00 | 18 | 1008.7 |
| 20260902140049 | 52 | 208 | 1.0 | 0.0 | 0.00 | 0.00 | 0.00 | 20 | 1008.0 |
| 20260902134548 | 51 | 140 | 1.0 | 0.0 | 0.00 | 0.00 | 0.00 | 22 | 1008.0 |
| 20260902133056 | 51 | 165 | 2.0 | 0.0 | 0.00 | 0.00 | 0.00 | 22 | 1007.9 |
| 20260902131556 | 51 | 179 | 2.0 | 0.0 | 0.00 | 0.00 | 0.00 | 23 | 1007.6 |
| 20260902130044 | 52 | 172 | 2.0 | 0.0 | 0.00 | 0.00 | 0.00 | 22 | 1006.7 |
| 20260902124543 | 51 | 171 | 2.0 | 0.0 | 0.00 | 0.00 | 0.00 | 22 | 1006.5 |
| 20260902123042 | 51 | 144 | 2.0 | 0.0 | 0.00 | 0.00 | 0.00 | 22 | 1006.5 |
| 20260902121542 | 51 | 145 | 1.0 | 0.0 | 0.00 | 0.00 | 0.00 | 20 | 1006.7 |
| 20260902120041 | 51 | 178 | 1.0 | 0.0 | 0.00 | 0.00 | 0.00 | 19 | 1005.8 |
| 20260902114543 | 51 | 188 | 1.0 | 0.0 | 0.00 | 0.00 | 0.00 | 21 | 1005.8 |
| 20260902113052 | 51 | 162 | 1.0 | 0.0 | 0.00 | 0.00 | 0.00 | 23 | 1005.7 |
| 20260902111539 | 51 | 181 | 1.0 | 0.0 | 0.00 | 0.00 | 0.00 | 21 | 1005.9 |
| 20260902110038 | 51 | 202 | 0.0 | 0.0 | 0.00 | 0.00 | 0.00 | 20 | 1006.1 |
| 20260902104557 | 51 | 175 | 0.0 | 0.0 | 0.00 | 0.00 | 0.00 | 19 | 1006.2 |
| 20260902103037 | 51 | 171 | 0.0 | 0.0 | 0.00 | 0.00 | 0.00 | 17 | 1006.2 |
| 20260902101540 | 51 | 150 | 0.0 | 0.0 | 0.00 | 0.00 | 0.00 | 18 | 1006.2 |
| 20260902100034 | 51 | 202 | 0.0 | 0.0 | 0.00 | 0.00 | 0.00 | 18 | 1006.2 |
| 20260902094535 | 51 | 141 | 0.0 | 0.0 | 0.00 | 0.00 | 0.00 | 18 | 1006.1 |
| 20260902093038 | 52 | 127 | 0.0 | 0.0 | 0.00 | 0.00 | 0.00 | 18 | 1006.2 |
| 20260902091537 | 52 | 137 | 0.0 | 0.0 | 0.00 | 0.00 | 0.00 | 18 | 1006.3 |
| 20260902090032 | 52 | 131 | 0.0 | 0.0 | 0.00 | 0.00 | 0.00 | 20 | 1006.1 |
| 20260902084530 | 52 | 140 | 0.0 | 0.0 | 0.00 | 0.00 | 0.00 | 21 | 1006.3 |
| 20260902083040 | 52 | 198 | 0.0 | 0.0 | 0.00 | 0.00 | 0.00 | 22 | 1006.3 |
| 20260902081530 | 52 | 196 | 0.0 | 0.0 | 0.00 | 0.00 | 0.00 | 22 | 1006.3 |
| 20260902080026 | 52 | 176 | 0.0 | 0.0 | 0.00 | 0.00 | 0.00 | 24 | 1006.1 |
| 20260902074525 | 52 | 133 | 0.0 | 0.0 | 0.00 | 0.00 | 0.00 | 24 | 1006.1 |
| 20260902073028 | 52 | 152 | 0.0 | 0.0 | 0.00 | 0.00 | 0.00 | 24 | 1006.0 |
| 20260902071524 | 52 | 174 | 0.0 | 0.0 | 0.00 | 0.00 | 0.00 | 25 | 1006.0 |
| 20260902070022 | 52 | 143 | 0.0 | 0.0 | 0.00 | 0.00 | 0.00 | 27 | 1006.5 |
| 20260902064522 | 52 | 157 | 0.0 | 0.0 | 0.00 | 0.00 | 0.00 | 29 | 1006.6 |
| 20260902063022 | 52 | 140 | 0.0 | 0.0 | 0.00 | 0.00 | 0.00 | 34 | 1006.7 |
| 20260902061535 | 53 | 140 | 0.0 | 0.0 | 0.00 | 0.00 | 0.00 | 36 | 1006.8 |
| 20260902060020 | 53 | 130 | 0.0 | 0.0 | 0.00 | 0.00 | 0.00 | 36 | 1007.3 |
| 20260902054526 | 53 | 130 | 0.0 | 0.0 | 0.00 | 0.00 | 0.00 | 37 | 1006.9 |
| 20260902053019 | 53 | 128 | 0.0 | 0.0 | 0.00 | 0.00 | 0.00 | 36 | 1007.0 |
| 20260902051518 | 53 | 128 | 0.0 | 0.0 | 0.00 | 0.00 | 0.00 | 36 | 1007.1 |
| 20260902050018 | 53 | 126 | 0.0 | 0.0 | 0.00 | 0.00 | 0.00 | 36 | 1007.5 |
| 20260902044525 | 53 | 130 | 0.0 | 0.0 | 0.00 | 0.00 | 0.00 | 37 | 1007.4 |
| 20260902043018 | 53 | 130 | 0.0 | 0.0 | 0.00 | 0.00 | 0.00 | 38 | 1007.3 |
| 20260902041517 | 54 | 126 | 0.0 | 0.0 | 0.00 | 0.00 | 0.00 | 46 | 1007.0 |
| 20260902040016 | 54 | 150 | 0.0 | 0.0 | 0.00 | 0.00 | 0.00 | 48 | 1007.0 |
| 20260902034515 | 54 | 182 | 0.0 | 0.0 | 0.00 | 0.00 | 0.00 | 48 | 1007.0 |
| 20260902033014 | 54 | 191 | 1.0 | 0.0 | 0.00 | 0.00 | 0.00 | 47 | 1006.7 |
| 20260902031525 | 54 | 160 | 0.0 | 0.0 | 0.00 | 0.00 | 0.00 | 47 | 1006.1 |